Location: Ertinghausen
(51.6624°N, 9.7874°E)
Time: 10:54:21
(UTC+00:00)

MSX - Pass Details

Date: 23 May 2024
Orbit: 893 x 906 km, 99.0° (Epoch: 23 June)

Event Time Altitude Azimuth Distance (km) Brightness Sun altitude
Rises 02:02:04 0° 13° (NNE) 3,528 8.2 -9.2°
Reaches altitude 10° 02:04:31 10° 9° (N) 2,582 7.3 -9.0°
Maximum altitude 02:10:07 56° 293° (WNW) 1,065 4.2 -8.5°
Drops below altitude 10° 02:15:40 10° 217° (SW) 2,561 5.5 -7.9°
Enters shadow 02:15:47 - 217° (SW) 2,609 5.6 -7.9°
